TimeEST,TemperatureF,Dew PointF,Humidity,Sea Level PressureIn,VisibilityMPH,Wind Direction,Wind SpeedMPH,Gust SpeedMPH,PrecipitationIn,Events,Conditions,WindDirDegrees,DateUTC
12:53 AM,59.0,54.0,83,30.08,10.0,Calm,Calm,-,N/A,,Clear,0,2012-11-24 05:53:00
1:53 AM,57.0,53.1,87,30.07,10.0,Calm,Calm,-,N/A,,Clear,0,2012-11-24 06:53:00
2:53 AM,54.0,50.0,86,30.07,10.0,Calm,Calm,-,N/A,,Clear,0,2012-11-24 07:53:00
3:53 AM,55.0,48.0,77,30.06,10.0,WNW,4.6,-,N/A,,Clear,300,2012-11-24 08:53:00
4:53 AM,55.0,48.9,80,30.06,10.0,WNW,4.6,-,N/A,,Clear,300,2012-11-24 09:53:00
5:53 AM,55.0,48.9,80,30.08,10.0,NW,4.6,-,N/A,,Clear,310,2012-11-24 10:53:00
6:53 AM,53.1,48.9,86,30.11,10.0,WNW,4.6,-,N/A,,Clear,300,2012-11-24 11:53:00
7:53 AM,55.9,50.0,80,30.12,10.0,WNW,4.6,-,N/A,,Clear,290,2012-11-24 12:53:00
8:53 AM,62.1,52.0,70,30.13,10.0,WNW,5.8,-,N/A,,Clear,290,2012-11-24 13:53:00
9:53 AM,66.9,52.0,59,30.13,10.0,NW,6.9,-,N/A,,Clear,320,2012-11-24 14:53:00
10:53 AM,69.1,51.1,53,30.11,10.0,NW,8.1,17.3,N/A,,Clear,310,2012-11-24 15:53:00
11:53 AM,72.0,52.0,49,30.09,10.0,WNW,8.1,16.1,N/A,,Clear,290,2012-11-24 16:53:00
12:53 PM,73.0,50.0,44,30.06,10.0,NW,10.4,20.7,N/A,,Clear,310,2012-11-24 17:53:00
1:53 PM,73.9,45.0,35,30.03,10.0,NNW,11.5,-,N/A,,Clear,330,2012-11-24 18:53:00
2:53 PM,73.9,46.0,37,30.02,10.0,NNW,9.2,-,N/A,,Clear,330,2012-11-24 19:53:00
3:53 PM,73.0,48.0,41,30.02,10.0,WNW,5.8,-,N/A,,Clear,300,2012-11-24 20:53:00
4:53 PM,72.0,48.0,43,30.03,10.0,NNW,5.8,-,N/A,,Clear,340,2012-11-24 21:53:00
5:53 PM,69.1,46.9,45,30.03,10.0,Calm,Calm,-,N/A,,Clear,0,2012-11-24 22:53:00
6:53 PM,64.9,48.9,56,30.04,10.0,Calm,Calm,-,N/A,,Clear,0,2012-11-24 23:53:00
7:53 PM,64.0,50.0,60,30.05,10.0,Calm,Calm,-,N/A,,Clear,0,2012-11-25 00:53:00
8:53 PM,60.1,51.1,72,30.06,10.0,Calm,Calm,-,N/A,,Clear,0,2012-11-25 01:53:00
9:53 PM,61.0,53.1,75,30.07,10.0,Calm,Calm,-,N/A,,Partly Cloudy,0,2012-11-25 02:53:00
10:53 PM,59.0,52.0,78,30.09,10.0,WSW,4.6,-,N/A,,Partly Cloudy,250,2012-11-25 03:53:00
11:53 PM,62.1,57.0,84,30.08,10.0,WNW,5.8,-,N/A,,Clear,290,2012-11-25 04:53:00